Simultaneous Nadir Overpasses (SNOs) Predictions

Prediction of SNOs between FY3D and METOP-C Satellite Orbit:

Table of predicted SNOs for the next 14.0 days since TLE Epoch: 7/15/2019
Index Date (FY3D) Time (FY3D) Lat,Lon (FY3D) SZA (FY3D ) Date (METOP-C) Time (METOP-C) Lat,Lon (METOP-C) SZA (METOP-C ) Distance(km) Time Diff (sec)
1 07/27/2019 00:15:50 73.72, 166.86 54.65 07/27/2019 00:16:56 73.64, 169.72 54.40 89.94 66
2 07/27/2019 01:06:31 -73.57, -25.45 125.52 07/27/2019 01:07:39 -73.55, -23.16 125.67 72.29 68
3 07/27/2019 01:57:13 73.42, 142.20 54.33 07/27/2019 01:58:23 73.37, 143.76 54.18 50.11 70
4 07/27/2019 02:47:55 -73.31, -50.24 125.79 07/27/2019 02:49:06 -73.28, -49.11 125.90 36.45 71
5 07/27/2019 03:38:37 73.16, 117.40 54.06 07/27/2019 03:39:50 73.10, 117.82 53.95 15.43 73
6 07/27/2019 04:29:19 -73.05, -75.05 126.06 07/27/2019 04:30:32 -73.06, -74.93 126.08 3.91 73
7 07/27/2019 05:20:03 73.00, 92.37 53.90 07/27/2019 05:21:13 73.02, 92.33 53.91 2.94 70
8 07/27/2019 06:10:48 -73.04,-100.40 126.05 07/27/2019 06:11:54 -73.04,-100.31 126.08 2.97 66
9 07/27/2019 07:01:32 72.99, 67.02 53.90 07/27/2019 07:02:35 73.00, 66.95 53.90 2.56 63
10 07/27/2019 07:52:17 -73.04,-125.76 126.05 07/27/2019 07:53:16 -73.02,-125.70 126.08 2.85 59
11 07/27/2019 08:43:01 72.99, 41.66 53.91 07/27/2019 08:43:57 72.98, 41.56 53.90 3.22 56
12 07/27/2019 09:33:45 -72.98,-151.01 126.09 07/27/2019 09:34:38 -73.00,-151.08 126.08 3.23 53
13 07/27/2019 10:24:31 73.03, 16.20 53.97 07/27/2019 10:25:18 73.01, 16.29 53.94 3.35 47
14 07/27/2019 11:15:14 -72.97,-176.36 126.09 07/27/2019 11:16:00 -72.98,-176.46 126.09 3.43 46
15 07/27/2019 12:05:59 72.97, -9.05 53.93 07/27/2019 12:06:40 72.99, -9.10 53.94 2.93 41
16 07/27/2019 12:56:44 -73.01, 158.18 126.02 07/27/2019 12:57:21 -73.01, 158.26 126.04 2.82 37
17 07/27/2019 13:47:28 72.96, -34.40 53.93 07/27/2019 13:48:02 72.97, -34.48 53.94 2.69 34
18 07/27/2019 14:38:13 -73.01, 132.82 126.02 07/27/2019 14:38:43 -72.99, 132.88 126.05 2.83 30
19 07/27/2019 15:28:57 72.96, -59.76 53.94 07/27/2019 15:29:24 72.95, -59.86 53.94 3.43 27
20 07/27/2019 16:19:41 -72.95, 107.57 126.06 07/27/2019 16:20:05 -72.96, 107.49 126.05 3.28 24
21 07/27/2019 17:10:26 73.00, -85.22 54.00 07/27/2019 17:10:44 72.98, -85.14 53.98 3.25 18
22 07/27/2019 18:01:10 -72.99, 82.11 126.00 07/27/2019 18:01:25 -72.99, 82.22 126.01 3.50 15
23 07/27/2019 18:51:54 72.94,-110.47 53.96 07/27/2019 18:52:06 72.96,-110.52 53.98 2.93 12
24 07/27/2019 19:42:39 -72.98, 56.76 125.99 07/27/2019 19:42:47 -72.97, 56.83 126.01 2.69 8
25 07/27/2019 20:33:23 72.93,-135.83 53.96 07/27/2019 20:33:28 72.94,-135.91 53.98 2.82 5
26 07/27/2019 21:24:08 -72.97, 31.40 125.99 07/27/2019 21:24:09 -72.95, 31.45 126.01 2.84 1
27 07/27/2019 22:14:53 72.98,-161.29 54.03 07/27/2019 22:14:49 72.97,-161.18 54.02 3.46 4
28 07/27/2019 23:05:36 -72.92, 6.15 126.03 07/27/2019 23:05:31 -72.93, 6.07 126.01 3.33 5
29 07/27/2019 23:56:22 72.97, 173.36 54.03 07/27/2019 23:56:11 72.95, 173.43 54.02 3.18 11
30 07/28/2019 00:47:06 -72.96, -19.31 125.97 07/28/2019 00:46:52 -72.96, -19.21 125.97 3.32 14
31 07/28/2019 01:37:50 72.91, 148.11 53.99 07/28/2019 01:37:33 72.93, 148.05 54.01 2.94 17
32 07/28/2019 02:28:35 -72.95, -44.67 125.96 07/28/2019 02:28:14 -72.94, -44.59 125.97 2.60 21
33 07/28/2019 03:19:19 72.90, 122.75 53.99 07/28/2019 03:18:55 72.91, 122.67 54.01 2.95 24
34 07/28/2019 04:10:04 -72.94, -70.02 125.95 07/28/2019 04:09:36 -72.92, -69.98 125.97 2.87 28
35 07/28/2019 05:00:49 72.94, 97.29 54.06 07/28/2019 05:00:16 72.94, 97.39 54.05 3.31 33
36 07/28/2019 05:51:32 -72.89, -95.27 126.00 07/28/2019 05:50:58 -72.90, -95.36 125.97 3.38 34
37 07/28/2019 06:42:18 72.94, 71.94 54.07 07/28/2019 06:41:38 72.92, 72.01 54.05 3.13 40
38 07/28/2019 07:33:02 -72.93,-120.73 125.94 07/28/2019 07:32:19 -72.93,-120.64 125.93 3.16 43
39 07/28/2019 08:23:46 72.88, 46.69 54.02 07/28/2019 08:23:00 72.90, 46.62 54.05 2.95 46
40 07/28/2019 09:14:31 -72.92,-146.09 125.93 07/28/2019 09:13:41 -72.91,-146.02 125.93 2.53 50
41 07/28/2019 10:05:15 72.87, 21.33 54.03 07/28/2019 10:04:22 72.88, 21.24 54.05 3.07 53
42 07/28/2019 10:56:00 -72.91,-171.44 125.92 07/28/2019 10:55:03 -72.89,-171.40 125.94 2.93 57
43 07/28/2019 11:46:45 72.91, -4.13 54.09 07/28/2019 11:45:43 72.91, -4.04 54.09 3.18 62
44 07/28/2019 12:37:28 -72.86, 163.31 125.97 07/28/2019 12:36:25 -72.87, 163.22 125.94 3.42 63
45 07/28/2019 13:28:14 72.91, -29.49 54.10 07/28/2019 13:27:05 72.89, -29.42 54.09 3.12 69
46 07/28/2019 14:18:58 -72.90, 137.85 125.91 07/28/2019 14:17:46 -72.90, 137.94 125.89 3.02 72
47 07/28/2019 15:09:42 72.85, -54.73 54.05 07/28/2019 15:08:27 72.87, -54.80 54.09 2.96 75
48 07/28/2019 16:00:24 -72.74, 112.81 126.06 07/28/2019 15:59:11 -72.73, 112.24 126.03 18.80 73
49 07/28/2019 16:51:06 72.59, -79.57 53.78 07/28/2019 16:49:54 72.59, -80.71 53.86 38.07 72
50 07/28/2019 17:41:48 -72.48, 87.97 126.33 07/28/2019 17:40:37 -72.50, 86.44 126.21 51.05 71
51 07/28/2019 18:32:29 72.27,-104.31 53.45 07/28/2019 18:31:21 72.31,-106.60 53.64 77.54 68
52 07/28/2019 19:23:12 -72.22, 63.11 126.60 07/28/2019 19:22:05 -72.18, 60.46 126.47 90.26 67




NCC Satellite Simultaneous Nadir Overpasses (SNOs) Prediction Service
